Weather History for Moffett NAS, CA

Change the Weather History Date:

Sunday, April 22, 2007

  Actual Average Record
Temperature  
Mean Temperature 56 °F 60 °F  
Max Temperature 63 °F 70 °F 88 °F (2013)
Min Temperature 50 °F 50 °F 40 °F (1945)
Degree Days  
Heating Degree Days 8    
Month to date heating degree days  
Since 1 July heating degree days  
Cooling Degree Days 0    
Month to date cooling degree days  
Year to date cooling degree days  
Growing Degree Days 6 (Base 50)    
Moisture  
Dew Point 45 °F    
Average Humidity 70    
Maximum Humidity 94    
Minimum Humidity 48    
Precipitation  
Precipitation 0.11 in 0.03 in 0.18 in (1980)
Month to date precipitation 0.76  
Year to date precipitation 8.84  
Since 1 July precipitation 13.89  
Sea Level Pressure  
Sea Level Pressure 30.01 in    
Wind  
Wind Speed 9 mph (NW)    
Max Wind Speed 15 mph    
Max Gust Speed 23 mph    
Visibility 10 miles    
Events Rain    
T = Trace of Precipitation, MM = Missing Value Source: NWS Daily Summary

Daily Weather History Graph

Daily Weather History Graph

Search for Another Location

Airport:

Trip Planner

Search our weather history database for the weather conditions in past years. The results will help you decide how hot, cold, wet, or windy it might be!

Date:

Astronomy

Apr. 22, 2007 Rise Set
Actual Time 6:24 AM PDT 7:49 PM PDT
Civil Twilight 5:57 AM PDT 8:17 PM PDT
Nautical Twilight 5:24 AM PDT 8:50 PM PDT
Astronomical Twilight 4:49 AM PDT 9:24 PM PDT
Moon 10:35 AM PDT (4/22) 1:20 AM PDT (4/22)
Length of Visible Light 14h 20m
Length of Day
13h 25m
Waxing Crescent, 35% of the Moon is Illuminated
Apr 22
Waxing Crescent
Apr 23
First Quarter
May 2
Full
May 9
Last Quarter
May 16
New

Hourly Weather History & Observations

Time (PDT) Temp. Dew Point Humidity Pressure Visibility Wind Dir Wind Speed Gust Speed Precip Events Conditions
12:56 AM 52.0 °F 44.1 °F 74% 29.97 in 10.0 mi SSE 13.8 mph 23.0 mph 0.01 in Rain Light Rain
1:56 AM 51.1 °F 45.0 °F 80% 29.94 in 8.0 mi SE 15.0 mph 23.0 mph 0.05 in Rain Light Rain
2:56 AM 50.0 °F 46.0 °F 86% 29.92 in 7.0 mi SSE 11.5 mph - 0.04 in Rain Light Rain
3:56 AM 51.1 °F 46.0 °F 83% 29.93 in 10.0 mi SSE 9.2 mph - 0.01 in Rain Light Rain
4:56 AM 51.1 °F 46.9 °F 86% 29.94 in 10.0 mi ESE 9.2 mph - 0.00 in   Overcast
5:10 AM 51.8 °F 46.4 °F 82% 29.93 in 10.0 mi SSE 5.8 mph - 0.00 in Rain Light Rain
5:44 AM 50.0 °F 48.2 °F 94% 29.94 in 10.0 mi ESE 5.8 mph - 0.00 in   Overcast
5:56 AM 51.1 °F 48.0 °F 89% 29.95 in 10.0 mi South 3.5 mph - 0.00 in   Overcast
6:56 AM 51.1 °F 48.0 °F 89% 29.97 in 10.0 mi Calm Calm - N/A   Partly Cloudy
7:56 AM 53.1 °F 48.0 °F 83% 30.00 in 10.0 mi NW 4.6 mph - N/A   Mostly Cloudy
8:56 AM 53.1 °F 45.0 °F 74% 30.01 in 10.0 mi NW 6.9 mph - N/A   Mostly Cloudy
9:56 AM 57.0 °F 46.9 °F 69% 30.01 in 10.0 mi North 5.8 mph - N/A   Mostly Cloudy
10:45 AM 59.0 °F 48.2 °F 67% 30.01 in 10.0 mi North 6.9 mph - N/A   Mostly Cloudy
10:56 AM 57.9 °F 46.9 °F 67% 30.02 in 10.0 mi North 8.1 mph - N/A   Mostly Cloudy
11:56 AM 59.0 °F 46.9 °F 64% 30.03 in 10.0 mi Variable 6.9 mph - N/A   Mostly Cloudy
12:56 PM 59.0 °F 44.1 °F 58% 30.02 in 10.0 mi North 13.8 mph - N/A   Mostly Cloudy
1:56 PM 63.0 °F 44.1 °F 50% 30.03 in 10.0 mi NNW 11.5 mph - N/A   Mostly Cloudy
2:56 PM 62.1 °F 42.1 °F 48% 30.03 in 10.0 mi WNW 13.8 mph 19.6 mph N/A   Mostly Cloudy
3:56 PM 61.0 °F 41.0 °F 48% 30.02 in 10.0 mi NW 11.5 mph 16.1 mph N/A   Mostly Cloudy
4:56 PM 61.0 °F 41.0 °F 48% 30.02 in 10.0 mi West 12.7 mph - N/A   Scattered Clouds
5:56 PM 60.1 °F 41.0 °F 49% 30.03 in 10.0 mi NW 11.5 mph 18.4 mph N/A   Scattered Clouds
6:56 PM 57.0 °F 42.1 °F 57% 30.04 in 10.0 mi WNW 9.2 mph - N/A   Clear
7:56 PM 54.0 °F 42.1 °F 64% 30.06 in 10.0 mi NW 10.4 mph - N/A   Partly Cloudy
8:56 PM 53.1 °F 42.1 °F 66% 30.08 in 10.0 mi Variable 3.5 mph - N/A   Clear
9:56 PM 52.0 °F 42.1 °F 69% 30.10 in 10.0 mi WNW 4.6 mph - N/A   Clear
10:56 PM 51.1 °F 42.1 °F 71% 30.10 in 10.0 mi Calm Calm - N/A   Clear
11:56 PM 50.0 °F 42.1 °F 74% 30.11 in 10.0 mi Calm Calm - N/A   Clear